Location: Unspecified
(0.0000°N, 0.0000°E)
Time: 12:41:52
(UTC+00:00)

LightSail 2 - Pass Details

Date: 12 December 2019
Orbit: 696 x 729 km, 24.0° (Epoch: 10 December)

Event Time Altitude Azimuth Distance (km) Brightness Sun altitude
Rises 19:21:18 0° 310° (NW) 3,101 8.8 -20.1°
Reaches altitude 10° 19:23:55 10° 318° (NW) 2,177 7.8 -20.7°
Enters shadow 19:28:04 35° 10° (N) 1,139 5.9 -21.6°
